Port Hope, MI

6:10 AM EDT on July 28, 2017 (GMT -0400)
Port Hope

Weather History for KP58 - July, 2013

Change the Weather History Date:

Wednesday, July 24, 2013

  Actual Average Record
Temperature  
Mean Temperature 60 °F -  
Max Temperature 66 °F 75 °F 89 °F (2001)
Min Temperature 52 °F 61 °F 52 °F (2013)
Degree Days  
Heating Degree Days 6    
Growing Degree Days 10 (Base 50)    
Moisture  
Dew Point 48 °F    
Average Humidity 64    
Maximum Humidity 89    
Minimum Humidity 50    
Precipitation  
Precipitation 0.00 in - - ()
Sea Level Pressure  
Sea Level Pressure 30.00 in    
Wind  
Wind Speed 8 mph (NNE)    
Max Wind Speed 17 mph    
Max Gust Speed 25 mph    
Averages and records for this station are not official NWS values.
T = Trace of Precipitation, MM = Missing Value Source: NWS Daily Summary

Daily Weather History Graph

Daily Weather History Graph

Search for Another Location

Airport or City:

Trip Planner

Search our weather history database for the weather conditions in past years. The results will help you decide how hot, cold, wet, or windy it might be!

Date:

Astronomy

Jul. 24, 2013 Rise Set
Actual Time 6:11 AM EDT 9:03 PM EDT
Civil Twilight 5:37 AM EDT 9:37 PM EDT
Nautical Twilight 4:54 AM EDT 10:20 PM EDT
Astronomical Twilight 4:03 AM EDT 11:10 PM EDT
Moon 10:00 PM EDT (7/24) 8:36 AM EDT (7/24)
Length of Visible Light 16h 00m
Length of Day
14h 52m
Waning Gibbous, 95% of the Moon is Illuminated
Jul 24
Waning Gibbous
Jul 29
Last Quarter
Aug 6
New
Aug 14
First Quarter
Aug 20
Full

Hourly Weather History & Observations

Time (EDT) Temp. Dew Point Humidity Pressure Visibility Wind Dir Wind Speed Gust Speed Precip Events Conditions
12:51 AM 61.0 °F 50.0 °F 67% 29.88 in - Variable 5.8 mph - N/A   Unknown
1:51 AM 61.0 °F 48.9 °F 64% 29.89 in - North 15.0 mph 24.2 mph N/A   Unknown
2:51 AM 60.1 °F 48.0 °F 64% 29.90 in - North 12.7 mph 21.9 mph N/A   Unknown
3:51 AM 59.0 °F 48.9 °F 69% 29.91 in - Variable 4.6 mph - N/A   Unknown
4:51 AM 57.9 °F 48.0 °F 70% 29.92 in - North 9.2 mph 18.4 mph N/A   Unknown
5:51 AM 57.9 °F 46.9 °F 67% 29.93 in - North 9.2 mph 18.4 mph N/A   Unknown
6:51 AM 59.0 °F 48.9 °F 69% 29.95 in - NNE 16.1 mph 25.3 mph N/A   Unknown
7:51 AM 60.1 °F 48.0 °F 64% 29.97 in - NNE 17.3 mph 21.9 mph N/A   Unknown
8:51 AM 61.0 °F 48.9 °F 64% 30.00 in - NNE 13.8 mph 18.4 mph N/A   Unknown
9:51 AM 62.1 °F 48.9 °F 62% 30.01 in - North 9.2 mph - N/A   Unknown
10:51 AM 63.0 °F 50.0 °F 63% 30.02 in - Variable 4.6 mph - N/A   Unknown
11:51 AM 64.0 °F 50.0 °F 60% 30.03 in - Variable 4.6 mph - N/A   Unknown
12:51 PM 64.9 °F 50.0 °F 58% 30.05 in - North 6.9 mph - N/A   Unknown
1:51 PM 64.9 °F 46.9 °F 52% 30.04 in - Calm Calm - N/A   Unknown
2:51 PM 66.0 °F 48.0 °F 52% 30.04 in - Variable 3.5 mph - N/A   Unknown
3:51 PM 64.9 °F 46.9 °F 52% 30.04 in - NE 4.6 mph - N/A   Unknown
4:51 PM 66.0 °F 46.9 °F 50% 30.04 in - NNE 3.5 mph - N/A   Unknown
5:51 PM 64.0 °F 46.9 °F 54% 30.04 in - ENE 5.8 mph - N/A   Unknown
6:51 PM 63.0 °F 46.9 °F 56% 30.04 in - Calm Calm - N/A   Unknown
7:51 PM 63.0 °F 46.9 °F 56% 30.04 in - NE 3.5 mph - N/A   Unknown
8:51 PM 60.1 °F 50.0 °F 69% 30.04 in - Calm Calm - N/A   Unknown
9:51 PM 57.0 °F 50.0 °F 77% 30.05 in - Calm Calm - N/A   Unknown
10:51 PM 53.1 °F 50.0 °F 89% 30.05 in - WSW 3.5 mph - N/A   Unknown
11:51 PM 52.0 °F 48.9 °F 89% 30.06 in - WSW 3.5 mph - N/A   Unknown